Accueil
METAR-TAF:

METAR-TAF

Aéroports :

Col de Resia, Italie

latitude: 46-50N, longitude: 010-30E, altitude: 1800 m

Observation

Le bulletin a été fait il y a 44 minutes, à 09:55 UTC
Vent 5 kt de sud/sud-ouest
Température 0°C
Humidité 55%
Pression 1018 hPa
Visibilité 10 km ou plus
pas de nuages en-dessous de 1500 mètres et pas de cumulonimbus.

METAR: LIVE 180955Z 20005KT CAVOK M00/M08 Q1018 RMK SKC VIS MIN 9999

Heure: 11:39 (10:39 UTC)


TAF: absent

Observations et prévisions météorologiques de plus de 4000 aéroports (messages METAR et TAF).

Les stations disponibles sont représentées par des disques jaunes et rouges sur la carte.

Passer la souris dessus pour voir le nom de la station.

Cliquer dessus pour voir les observations et prévisions météorologiques.

Pour changer de carte: cliquez sur les boutons verts avec une croix noire pour zoomer, sur le bouton vert avec un tiret pour effectuer un zoom arrière, ou sur les flèches vertes pour les cartes adjacentes.


METAR-TAF: